Other Surface Observations
Issued by NWS Tucson, AZ

Home | Current Version | Previous Version | Text Only | Print | Product List | Glossary On
Versions: 1 2 3 4 5 6 7 8 9 10 11 12 13 14 15 16 17 18 19 20 21 22 23 24 25 26 27 28 29 30 31 32 33 34 35 36 37 38 39 40 41 42 43 44 45 46 47 48 49 50
000
SXUS55 KTWC 180116
OSOTWC

WEATHER ROUNDUP FOR SOUTHEAST ARIZONA
NATIONAL WEATHER SERVICE TUCSON AZ
615 PM MST THU APR 17 2014

AZZ504>506-514-180215-
LOCATION       SKY/WX    TMP DP  RH WIND       PRES   REMARKS
TUCSON         PTSUNNY   89  14   6 VRB3      29.86F
DAVIS-MONTHAN  MOSUNNY   87  17   7 NW6       29.85F
CHILDRENS PARK N/A      N/A N/A N/A N/A               PIMA CO DEQ
ALVERNON/22ND  N/A       90 N/A N/A W3                PIMA CO DEQ
CHERRY/GLENN   N/A      N/A N/A N/A N/A               PIMA CO DEQ
TANGERINE      N/A       89 N/A N/A NE2               PIMA CO DEQ
CONTL RANCH    N/A       91  24   9 NW7               PIMA CO DEQ
GRANT/1ST      N/A       89  20   8 SW2               PIMA CO DEQ
CRAYCROFT/22ND N/A       88  19   8 W6                PIMA CO DEQ
GOLFLINKS/KOLB N/A      N/A N/A N/A N/A               PIMA CO DEQ
AJO/12TH       N/A       89  20   8 S5                PIMA CO DEQ
SAGUARO EAST   N/A       88  22   9 NW5               PIMA CO DEQ
FAIRGROUNDS    N/A       87 N/A N/A NW6               PIMA CO DEQ
SAGUARO        N/A       90  18   7 W6G11             *SABINO CYN
SAN CARLOS     N/A       90  14   6 CALM              *SAN CARLOS
GREEN VALLEY   N/A       87  22   9 W2                PIMA CO DEQ
HORSE CAMP CYN N/A       84  16   8 W9G17             *ARAVAIPA CYN
RINCON MTNS    N/A       62  12  14 CALM              *NR MANNING CAMP
$$

AZZ509>511-180215-
LOCATION       SKY/WX    TMP DP  RH WIND       PRES   REMARKS
SAFFORD        CLEAR     85  12   6 S6        29.88S
STRAY HORSE    N/A       67  13  12 S6G11             *
TRAIL CABIN    N/A       73  15  11 SW4G10            *N OF GRANVILLE
BLACK HILLS    N/A       85  11   6 S6G12             *N OF FT THOMAS
DRY LAKE       N/A       66  15  14 S6G12             *NATANES MTNS
NOON CREEK     N/A       77  16  10 SE5G10            *PINALENO MTNS
COLUMBINE      N/A       59  17  19 S5G13             *PINALENO MTNS
GUTHRIE        N/A       73  13  10 S7G15             *SW OF GUTHRIE
$$

AZZ502-503-513-180215-
LOCATION       SKY/WX    TMP DP  RH WIND       PRES   REMARKS
NOGALES        SUNNY     82  20  10 SW13      29.93S
SELLS          N/A       89  17   7 SW9G16            *
SASABE         N/A       86  18   8 SW11G18           *ALTAR VLY
HOPKINS        N/A       76  16  10 SE4G16            *SANTA RITA MTNS
CARR CYN       N/A       74  18  12 E4G11             *W OF HEREFORD
$$

AZZ507-508-512-180215-
LOCATION       SKY/WX    TMP DP  RH WIND       PRES   REMARKS
SIERRA VISTA   MOCLDY    79  12   8 SE7       29.99S
DOUGLAS        CLEAR     81  13   7 S6        29.97S
EMPIRE MTNS    N/A       80  16   9 SE6G14            *LAS CIENEGAS NCA
MULESHOE RANCH N/A       84  16   8 SW4G14            *PRESERVE
HEADQUARTERS   N/A       77  20  12 W6G15             *CHIRICAHUA MTNS
$$

.............................NOTES.............................
THIS IS AN AUTOMATED COLLECTIVE WITH MINIMAL QUALITY CONTROL.
PIMA CO DEQ SITES HAVE NONSTANDARD WIND SENSOR HEIGHTS.
PIMA CO DEQ SITES DO NOT REPORT WIND GUSTS.
* INDICATES WIND SENSORS LOCATED AT 20 FEET INSTEAD OF 33 FEET.
..............................KEY..............................
SKY/WX - SKY CONDITION/WEATHER
TMP    - TEMPERATURE IN FAHRENHEIT
DP     - DEWPOINT IN FAHRENHEIT
RH     - RELATIVE HUMIDITY IN PERCENT
WIND   - DIRECTION AND SPEED IN MILES PER HOUR (MPH)
VRB    - VARIABLE WIND DIRECTION
PRES   - MEAN SEA LEVEL PRESSURE IN INCHES OF MERCURY
         F - FALLING PRESSURE   R - RISING PRESSURE
         S - STEADY PRESSURE
VSB    - VISIBILITY IN MILES
HX     - HEAT INDEX IN FAHRENHEIT
WCI    - WIND CHILL INDEX IN FAHRENHEIT
N/A    - NOT AVAILABLE
AFB    - AIR FORCE BASE
         DAVIS-MONTHAN IS DAVIS-MONTHAN AIR FORCE BASE
CYN    - CANYON
MTNS   - MOUNTAINS
NCA    - NATIONAL CONSERVATION AREA
NR     - NEAR
VLY    - VALLEY
CONTL  - CONTINENTAL
PIMA CO DEQ - PIMA COUNTY DEPT OF ENVIRONMENTAL QUALITY



USA.gov is the U.S. government's official web portal to all federal, state and local government web resources and services.